Time,TemperatureF,DewpointF,PressureIn,WindDirection,WindDirectionDegrees,WindSpeedMPH,WindSpeedGustMPH,Humidity,HourlyPrecipIn,Conditions,Clouds,dailyrainin,SolarRadiationWatts/m^2,SoftwareType,DateUTC
2013-02-20 00:01:00,15.0,11.0,-100.00,SE,129,7.0,11.0,84,0.00,,,0.00,0.000000,,2013-02-20 07:01:00,
2013-02-20 00:32:00,15.0,11.0,-100.00,SE,129,7.0,11.0,84,0.00,,,0.00,0.000000,,2013-02-20 07:32:00,
2013-02-20 00:42:00,15.0,11.0,-100.00,SE,129,7.0,11.0,84,0.00,,,0.00,0.000000,,2013-02-20 07:42:00,
2013-02-20 00:52:00,15.0,11.0,-100.00,SE,129,7.0,11.0,84,0.00,,,0.00,0.000000,,2013-02-20 07:52:00,
2013-02-20 01:01:00,16.0,11.0,-100.00,SE,145,10.0,13.0,82,0.00,,,0.00,0.000000,,2013-02-20 08:01:00,
2013-02-20 01:22:00,16.0,11.0,-100.00,SE,145,10.0,13.0,82,0.00,,,0.00,0.000000,,2013-02-20 08:22:00,
2013-02-20 01:32:00,16.0,11.0,-100.00,SE,145,10.0,13.0,82,0.00,,,0.00,0.000000,,2013-02-20 08:32:00,
2013-02-20 01:42:00,16.0,11.0,-100.00,SE,145,10.0,13.0,82,0.00,,,0.00,0.000000,,2013-02-20 08:42:00,
2013-02-20 01:52:00,16.0,11.0,-100.00,SE,145,10.0,13.0,82,0.00,,,0.00,0.000000,,2013-02-20 08:52:00,
2013-02-20 02:01:00,16.0,11.0,-100.00,SSE,150,5.0,12.0,82,0.00,,,0.00,0.000000,,2013-02-20 09:01:00,
2013-02-20 02:32:00,16.0,11.0,-100.00,SSE,150,5.0,12.0,82,0.00,,,0.00,0.000000,,2013-02-20 09:32:00,
2013-02-20 02:42:00,16.0,11.0,-100.00,SSE,150,5.0,12.0,82,0.00,,,0.00,0.000000,,2013-02-20 09:42:00,
2013-02-20 02:52:00,16.0,11.0,-100.00,SSE,150,5.0,12.0,82,0.00,,,0.00,0.000000,,2013-02-20 09:52:00,
2013-02-20 03:01:00,18.0,13.0,-100.00,SW,225,1.0,11.0,80,0.00,,,0.00,0.000000,,2013-02-20 10:01:00,
2013-02-20 03:32:00,18.0,13.0,-100.00,SW,225,1.0,11.0,80,0.00,,,0.00,0.000000,,2013-02-20 10:32:00,
2013-02-20 03:42:00,18.0,13.0,-100.00,SW,225,1.0,11.0,80,0.00,,,0.00,0.000000,,2013-02-20 10:42:00,
2013-02-20 03:52:00,18.0,13.0,-100.00,SW,225,1.0,11.0,80,0.00,,,0.00,0.000000,,2013-02-20 10:52:00,
2013-02-20 04:01:00,19.0,15.0,-100.00,SSW,211,7.0,8.0,83,0.00,,,0.00,0.000000,,2013-02-20 11:01:00,
2013-02-20 04:32:00,19.0,15.0,-100.00,SSW,211,7.0,8.0,83,0.00,,,0.00,0.000000,,2013-02-20 11:32:00,
2013-02-20 04:42:00,19.0,15.0,-100.00,SSW,211,7.0,8.0,83,0.00,,,0.00,0.000000,,2013-02-20 11:42:00,
2013-02-20 04:52:00,19.0,15.0,-100.00,SSW,211,7.0,8.0,83,0.00,,,0.00,0.000000,,2013-02-20 11:52:00,
2013-02-20 05:01:00,19.0,15.0,-100.00,WNW,287,4.0,6.0,84,0.00,,,0.00,0.000000,,2013-02-20 12:01:00,
2013-02-20 05:32:00,19.0,15.0,-100.00,WNW,287,4.0,6.0,84,0.00,,,0.00,0.000000,,2013-02-20 12:32:00,
2013-02-20 05:42:00,19.0,15.0,-100.00,WNW,287,4.0,6.0,84,0.00,,,0.00,0.000000,,2013-02-20 12:42:00,
2013-02-20 05:53:00,19.0,15.0,-100.00,WNW,287,4.0,6.0,84,0.00,,,0.00,0.000000,,2013-02-20 12:53:00,
2013-02-20 06:01:00,18.0,15.0,-100.00,East,86,0.0,4.0,86,0.00,,,0.00,0.000000,,2013-02-20 13:01:00,
2013-02-20 06:32:00,18.0,15.0,-100.00,East,86,0.0,4.0,86,0.00,,,0.00,0.000000,,2013-02-20 13:32:00,
2013-02-20 06:42:00,18.0,15.0,-100.00,East,86,0.0,4.0,86,0.00,,,0.00,0.000000,,2013-02-20 13:42:00,
2013-02-20 06:52:00,18.0,15.0,-100.00,East,86,0.0,4.0,86,0.00,,,0.00,0.000000,,2013-02-20 13:52:00,
2013-02-20 07:01:00,17.0,14.0,-100.00,WNW,283,4.0,5.0,89,0.00,,,0.00,0.000000,,2013-02-20 14:01:00,
2013-02-20 07:32:00,17.0,14.0,-100.00,WNW,283,4.0,5.0,89,0.00,,,0.00,0.000000,,2013-02-20 14:32:00,
2013-02-20 07:42:00,17.0,14.0,-100.00,WNW,283,4.0,5.0,89,0.00,,,0.00,0.000000,,2013-02-20 14:42:00,
2013-02-20 07:52:00,17.0,14.0,-100.00,WNW,283,4.0,5.0,89,0.00,,,0.00,0.000000,,2013-02-20 14:52:00,
2013-02-20 08:01:00,19.0,16.0,-100.00,WNW,287,3.0,8.0,86,0.00,,,0.00,46.000000,,2013-02-20 15:01:00,
2013-02-20 08:32:00,19.0,16.0,-100.00,WNW,287,3.0,8.0,86,0.00,,,0.00,46.000000,,2013-02-20 15:32:00,
2013-02-20 08:42:00,19.0,16.0,-100.00,WNW,287,3.0,8.0,86,0.00,,,0.00,46.000000,,2013-02-20 15:42:00,
2013-02-20 08:52:00,19.0,16.0,-100.00,WNW,287,3.0,8.0,86,0.00,,,0.00,46.000000,,2013-02-20 15:52:00,
2013-02-20 09:01:00,19.0,15.0,-100.00,WNW,296,3.0,5.0,83,0.00,,,-99.99,122.000000,,2013-02-20 16:01:00,
2013-02-20 09:32:00,19.0,15.0,-100.00,WNW,296,3.0,5.0,83,0.00,,,-99.99,122.000000,,2013-02-20 16:32:00,
2013-02-20 09:42:00,19.0,15.0,-100.00,WNW,296,3.0,5.0,83,0.00,,,-99.99,122.000000,,2013-02-20 16:42:00,
2013-02-20 09:52:00,19.0,15.0,-100.00,WNW,296,3.0,5.0,83,0.00,,,-99.99,122.000000,,2013-02-20 16:52:00,
2013-02-20 10:01:00,24.0,17.0,-100.00,North,3,6.0,8.0,75,0.00,,,-99.99,310.000000,,2013-02-20 17:01:00,
2013-02-20 10:32:00,24.0,17.0,-100.00,North,3,6.0,8.0,75,0.00,,,-99.99,310.000000,,2013-02-20 17:32:00,
2013-02-20 10:42:00,24.0,17.0,-100.00,North,3,6.0,8.0,75,0.00,,,-99.99,310.000000,,2013-02-20 17:42:00,
2013-02-20 10:52:00,24.0,17.0,-100.00,North,3,6.0,8.0,75,0.00,,,-99.99,310.000000,,2013-02-20 17:52:00,
2013-02-20 11:01:00,24.0,16.0,-100.00,North,9,7.0,9.0,70,0.00,,,0.00,460.000000,,2013-02-20 18:01:00,
2013-02-20 11:22:00,24.0,16.0,-100.00,North,9,7.0,9.0,70,0.00,,,0.00,460.000000,,2013-02-20 18:22:00,
2013-02-20 11:32:00,24.0,16.0,-100.00,North,9,7.0,9.0,70,0.00,,,0.00,460.000000,,2013-02-20 18:32:00,
2013-02-20 11:42:00,24.0,16.0,-100.00,North,9,7.0,9.0,70,0.00,,,0.00,460.000000,,2013-02-20 18:42:00,
2013-02-20 11:52:00,24.0,16.0,-100.00,North,9,7.0,9.0,70,0.00,,,0.00,460.000000,,2013-02-20 18:52:00,
2013-02-20 12:01:00,24.0,16.0,-100.00,North,7,7.0,11.0,70,0.00,,,0.00,576.000000,,2013-02-20 19:01:00,
2013-02-20 12:32:00,24.0,16.0,-100.00,North,7,7.0,11.0,70,0.00,,,0.00,576.000000,,2013-02-20 19:32:00,
2013-02-20 12:42:00,24.0,16.0,-100.00,North,7,7.0,11.0,70,0.00,,,0.00,576.000000,,2013-02-20 19:42:00,
2013-02-20 12:52:00,24.0,16.0,-100.00,North,7,7.0,11.0,70,0.00,,,0.00,576.000000,,2013-02-20 19:52:00,
2013-02-20 13:01:00,22.0,14.0,-100.00,North,9,9.0,12.0,70,0.00,,,0.00,611.000000,,2013-02-20 20:01:00,
2013-02-20 13:31:00,22.0,14.0,-100.00,North,9,9.0,12.0,70,0.00,,,0.00,611.000000,,2013-02-20 20:31:00,
2013-02-20 13:41:00,22.0,14.0,-100.00,North,9,9.0,12.0,70,0.00,,,0.00,611.000000,,2013-02-20 20:41:00,
2013-02-20 13:52:00,22.0,14.0,-100.00,North,9,9.0,12.0,70,0.00,,,0.00,611.000000,,2013-02-20 20:52:00,
2013-02-20 14:01:00,22.0,13.0,-100.00,NNW,347,8.0,12.0,69,0.00,,,0.00,564.000000,,2013-02-20 21:01:00,
2013-02-20 14:32:00,22.0,13.0,-100.00,NNW,347,8.0,12.0,69,0.00,,,0.00,564.000000,,2013-02-20 21:32:00,
2013-02-20 14:42:00,22.0,13.0,-100.00,NNW,347,8.0,12.0,69,0.00,,,0.00,564.000000,,2013-02-20 21:42:00,
2013-02-20 14:52:00,22.0,13.0,-100.00,NNW,347,8.0,12.0,69,0.00,,,0.00,564.000000,,2013-02-20 21:52:00,
2013-02-20 15:01:00,22.0,13.0,-100.00,NNE,23,8.0,11.0,67,0.00,,,0.00,466.000000,,2013-02-20 22:01:00,
2013-02-20 15:32:00,22.0,13.0,-100.00,NNE,23,8.0,11.0,67,0.00,,,0.00,466.000000,,2013-02-20 22:32:00,
2013-02-20 15:43:00,22.0,13.0,-100.00,NNE,23,8.0,11.0,67,0.00,,,0.00,466.000000,,2013-02-20 22:43:00,
2013-02-20 15:52:00,22.0,13.0,-100.00,NNE,23,8.0,11.0,67,0.00,,,0.00,466.000000,,2013-02-20 22:52:00,
2013-02-20 16:01:00,21.0,13.0,-100.00,NNE,22,6.0,9.0,71,0.00,,,-99.99,302.000000,,2013-02-20 23:01:00,
2013-02-20 16:22:00,21.0,13.0,-100.00,NNE,22,6.0,9.0,71,0.00,,,-99.99,302.000000,,2013-02-20 23:22:00,
2013-02-20 16:32:00,21.0,13.0,-100.00,NNE,22,6.0,9.0,71,0.00,,,-99.99,302.000000,,2013-02-20 23:32:00,
2013-02-20 16:42:00,21.0,13.0,-100.00,NNE,22,6.0,9.0,71,0.00,,,-99.99,302.000000,,2013-02-20 23:42:00,
2013-02-20 16:52:00,21.0,13.0,-100.00,NNE,22,6.0,9.0,71,0.00,,,-99.99,302.000000,,2013-02-20 23:52:00,
2013-02-20 17:01:00,18.0,12.0,-100.00,NNE,19,5.0,7.0,78,0.00,,,0.00,95.000000,,2013-02-21 00:01:00,
2013-02-20 17:22:00,18.0,12.0,-100.00,NNE,19,5.0,7.0,78,0.00,,,0.00,95.000000,,2013-02-21 00:22:00,
2013-02-20 17:32:00,18.0,12.0,-100.00,NNE,19,5.0,7.0,78,0.00,,,0.00,95.000000,,2013-02-21 00:32:00,
2013-02-20 17:42:00,18.0,12.0,-100.00,NNE,19,5.0,7.0,78,0.00,,,0.00,95.000000,,2013-02-21 00:42:00,
2013-02-20 17:52:00,18.0,12.0,-100.00,NNE,19,5.0,7.0,78,0.00,,,0.00,95.000000,,2013-02-21 00:52:00,
2013-02-20 18:01:00,17.0,12.0,-100.00,North,351,5.0,7.0,80,0.00,,,0.00,10.000000,,2013-02-21 01:01:00,
2013-02-20 18:21:00,17.0,12.0,-100.00,North,351,5.0,7.0,80,0.00,,,0.00,10.000000,,2013-02-21 01:21:00,
2013-02-20 18:32:00,17.0,12.0,-100.00,North,351,5.0,7.0,80,0.00,,,0.00,10.000000,,2013-02-21 01:32:00,
2013-02-20 18:42:00,17.0,12.0,-100.00,North,351,5.0,7.0,80,0.00,,,0.00,10.000000,,2013-02-21 01:42:00,
2013-02-20 18:52:00,17.0,12.0,-100.00,North,351,5.0,7.0,80,0.00,,,0.00,10.000000,,2013-02-21 01:52:00,
2013-02-20 19:01:00,18.0,13.0,-100.00,NW,314,6.0,7.0,80,0.00,,,0.00,0.000000,,2013-02-21 02:01:00,
2013-02-20 19:22:00,18.0,13.0,-100.00,NW,314,6.0,7.0,80,0.00,,,0.00,0.000000,,2013-02-21 02:22:00,
2013-02-20 19:32:00,18.0,13.0,-100.00,NW,314,6.0,7.0,80,0.00,,,0.00,0.000000,,2013-02-21 02:32:00,
2013-02-20 19:42:00,18.0,13.0,-100.00,NW,314,6.0,7.0,80,0.00,,,0.00,0.000000,,2013-02-21 02:42:00,
2013-02-20 19:52:00,18.0,13.0,-100.00,NW,314,6.0,7.0,80,0.00,,,0.00,0.000000,,2013-02-21 02:52:00,
2013-02-20 20:01:00,18.0,12.0,-100.00,NNW,327,6.0,9.0,78,0.00,,,0.00,0.000000,,2013-02-21 03:01:00,
2013-02-20 20:32:00,18.0,12.0,-100.00,NNW,327,6.0,9.0,78,0.00,,,0.00,0.000000,,2013-02-21 03:32:00,
2013-02-20 20:42:00,18.0,12.0,-100.00,NNW,327,6.0,9.0,78,0.00,,,0.00,0.000000,,2013-02-21 03:42:00,
2013-02-20 20:52:00,18.0,12.0,-100.00,NNW,327,6.0,9.0,78,0.00,,,0.00,0.000000,,2013-02-21 03:52:00,
2013-02-20 21:01:00,18.0,12.0,-100.00,NW,323,6.0,9.0,77,0.00,,,0.00,0.000000,,2013-02-21 04:01:00,
2013-02-20 21:32:00,18.0,12.0,-100.00,NW,323,6.0,9.0,77,0.00,,,0.00,0.000000,,2013-02-21 04:32:00,
2013-02-20 21:42:00,18.0,12.0,-100.00,NW,323,6.0,9.0,77,0.00,,,0.00,0.000000,,2013-02-21 04:42:00,
2013-02-20 21:52:00,18.0,12.0,-100.00,NW,323,6.0,9.0,77,0.00,,,0.00,0.000000,,2013-02-21 04:52:00,
2013-02-20 22:01:00,18.0,12.0,-100.00,NNW,330,5.0,7.0,77,0.00,,,0.00,0.000000,,2013-02-21 05:01:00,
2013-02-20 22:22:00,18.0,12.0,-100.00,NNW,330,5.0,7.0,77,0.00,,,0.00,0.000000,,2013-02-21 05:22:00,
2013-02-20 22:37:00,18.0,12.0,-100.00,NNW,330,5.0,7.0,77,0.00,,,0.00,0.000000,,2013-02-21 05:37:00,
2013-02-20 22:46:00,18.0,12.0,-100.00,NNW,330,5.0,7.0,77,0.00,,,0.00,0.000000,,2013-02-21 05:46:00,
2013-02-20 22:59:00,18.0,12.0,-100.00,NNW,330,5.0,7.0,77,0.00,,,0.00,0.000000,,2013-02-21 05:59:00,
2013-02-20 23:01:00,18.0,12.0,-100.00,NNW,329,6.0,10.0,76,0.00,,,0.00,0.000000,,2013-02-21 06:01:00,
2013-02-20 23:21:00,18.0,12.0,-100.00,NNW,329,6.0,10.0,76,0.00,,,0.00,0.000000,,2013-02-21 06:21:00,
2013-02-20 23:31:00,18.0,12.0,-100.00,NNW,329,6.0,10.0,76,0.00,,,0.00,0.000000,,2013-02-21 06:31:00,
2013-02-20 23:41:00,18.0,12.0,-100.00,NNW,329,6.0,10.0,76,0.00,,,0.00,0.000000,,2013-02-21 06:41:00,
2013-02-20 23:51:00,18.0,12.0,-100.00,NNW,329,6.0,10.0,76,0.00,,,0.00,0.000000,,2013-02-21 06:51:00,